Regional Weather Roundup
Issued by NWS

Home | Current Version | Previous Version | Graphics & Text | Print | Product List | Glossary On
Versions: 1 2 3 4 5 6 7 8 9 10 11 12 13 14 15 16 17 18 19 20 21 22 23 24 25 26 27 28 29 30 31 32 33 34 35 36 37 38 39 40 41 42 43 44 45 46 47 48 49 50
000
ASUS43 KMPX 241901
RWRMN
WEATHER ROUNDUP FOR MINNESOTA
NATIONAL WEATHER SERVICE TWIN CITIES/CHANHASSEN MN
100 PM CST TUE JAN 24 2017


NOTE: "FAIR" INDICATES FEW OR NO CLOUDS BELOW 12,000 FEET WITH NO
SIGNIFICANT WEATHER AND/OR OBSTRUCTIONS TO VISIBILITY. N/A MEANS
CURRENT SKY AND/OR WEATHER CONDITIONS ARE NOT AVAILABLE.

MNZ060>063-068>070-242000-
   Twin Cities Metro

CITY           SKY/WX    TMP DP  RH WIND       PRES   REMARKS
TWIN CITIES    CLOUDY    32  26  78 NE7       29.84F WCI  26
ST PAUL        CLOUDY    32  27  81 E5        29.86F WCI  27
CRYSTAL        CLOUDY    32  24  72 SE5       29.83F WCI  27
BLAINE         CLOUDY    34  28  80 E3        29.84F
LAKEVILLE      CLOUDY    28  28 100 NE6       29.83F WCI  22
EDEN PRAIRIE   CLOUDY    32  25  75 NE7       29.82F WCI  26
SOUTH ST PAUL  CLOUDY    32  28  86 NE6       29.85F WCI  26
LAKE ELMO      CLOUDY    32  30  93 NE3       29.85F
$$
MNZ001>005-007-008-013>017-022>024-027-028-242000-
   Northwest Minnesota

CITY           SKY/WX    TMP DP  RH WIND       PRES   REMARKS
BEMIDJI        CLOUDY    27  23  84 NW5       29.82F WCI  22
HALLOCK        CLOUDY    28  25  86 W3        29.85F
ROSEAU         SUNNY     27  21  80 SW7       29.84F WCI  19
WARROAD        CLOUDY    27  21  80 S5        29.84F WCI  21
THIEF RVR FALL CLOUDY    27  21  78 W7        29.86F WCI  19
CROOKSTON      CLOUDY    27  21  80 NW5       29.88S WCI  21
FOSSTON        CLOUDY    25  21  86 SW6       29.85F WCI  18
DETROIT LAKES  CLOUDY    28  27  93 N5        29.85F WCI  23
PARK RAPIDS    CLOUDY    30  22  72 W3        29.82F
MAHNOMEN       CLOUDY    25  22  88 CALM      29.85F
$$
MNZ006-009>011-018-025>026-242000-
   North Central Minnesota

CITY           SKY/WX    TMP DP  RH WIND       PRES   REMARKS
BAUDETTE       CLOUDY    26  21  81 SW3       29.84F
FLAG ISLAND    CLOUDY    27  21  80 SW8       29.83F WCI  18
INTL FALLS     CLOUDY    28  22  78 W7        29.83F WCI  21
WASKISH        CLOUDY    27  23  86 W8        29.84F WCI  18
LONGVILLE      CLOUDY    28  23  80 CALM      29.82F
GRAND RAPIDS   CLOUDY    28  23  81 NW6       29.84F WCI  22
CRANE LAKE     CLOUDY    27  25  93 CALM      29.86F
ORR            CLOUDY    27  21  80 CALM      29.81F
COOK           CLOUDY    28  25  86 W5        29.83F WCI  23
WALKER         CLOUDY    29  23  78 CALM      29.83F
$$
MNZ012-019>021-037-242000-
   Northeast Minnesota

CITY           SKY/WX    TMP DP  RH WIND       PRES   REMARKS
DULUTH         CLOUDY    31  25  78 W5        29.80F WCI  26
ELY            CLOUDY    28  27  93 W5        29.82S WCI  23
HIBBING        CLOUDY    27  24  89 NW6       29.82F WCI  20
EVELETH        CLOUDY    30  25  81 NW7       29.83F WCI  23
DULUTH HARBOR  CLOUDY    34  28  80 CALM      29.85F
TWO HARBORS    CLOUDY    36  27  69 CALM      29.81F
SILVER BAY     CLOUDY    34  28  80 N3        29.81F
GRAND MARAIS     N/A     38  32  79 CALM      29.82F
G MARAIS ARPRT CLOUDY    32  25  74 NW3       29.79F
$$
MNZ029>031-032-039>041-046>048-054>057-064-242000-
   West Central Minnesota

CITY           SKY/WX    TMP DP  RH WIND       PRES   REMARKS
FERGUS FALLS   CLOUDY    30  25  80 N5        29.88F WCI  25
WHEATON        CLOUDY    32  27  80 N8        29.86F WCI  25
MORRIS         CLOUDY    34  27  75 E3        29.83S
ALEXANDRIA     CLOUDY    32  26  78 E3        29.82F
ELBOW LAKE     CLOUDY    31  26  82 CALM      29.84F HAZE
WADENA         CLOUDY   N/A N/A N/A NW5       29.82F
GLENWOOD       CLOUDY    30  27  86 CALM      29.83S
APPLETON       CLOUDY    34  27  75 NE7       29.82F WCI  28
ORTONVILLE     CLOUDY    32  27  80 CALM      29.83F
MADISON        CLOUDY    34  28  80 E9        29.82F WCI  26
WILLMAR        CLOUDY    32  28  86 CALM      29.83F
$$
MNZ033>034-036-042>043-049>051-058-059-242000-
   Central Minnesota

CITY           SKY/WX    TMP DP  RH WIND       PRES   REMARKS
ST CLOUD       CLOUDY    32  26  78 CALM      29.84S
SAUK CENTRE    CLOUDY    31  25  80 CALM      29.83S
PAYNESVILLE    CLOUDY    31  28  88 NE5       29.84S WCI  27
AITKIN         CLOUDY    34  25  69 CALM      29.81F
PINE RIVER     CLOUDY    28  25  86 CALM      29.86F
BRAINERD       CLOUDY    30  24  78 NW3       29.83F
STAPLES        CLOUDY    30  23  74 N3        29.82F
LONG PRAIRIE   CLOUDY    32  27  80 N3        29.83S
LITTLE FALLS   CLOUDY    32  25  74 CALM      29.83F
LITCHFIELD     CLOUDY    32  27  80 NE5       29.83F WCI  27
BUFFALO        CLOUDY    31  26  80 NE3       29.85F
MAPLE LAKE     CLOUDY    32  28  85 E5        29.85F WCI  27
HUTCHINSON     CLOUDY    32  28  84 E9        29.83F WCI  24
$$
MNZ037-044-045-052-053-242000-
   East Central Minnesota

CITY           SKY/WX    TMP DP  RH WIND       PRES   REMARKS
PRINCETON      CLOUDY    34  27  75 E5        29.85R WCI  30
MORA           CLOUDY    32  25  74 E5        29.85F WCI  27
CAMBRIDGE      CLOUDY    34  25  69 NE3       29.83S
RUSH CITY      CLOUDY    32  27  80 NE5       29.84F WCI  27
MOOSE LAKE     CLOUDY    32  27  80 N5        29.81F WCI  27
HINCKLEY       CLOUDY    32  28  86 NE9       29.82F WCI  24
CLOQUET        CLOUDY    30  25  80 CALM      29.81F
MCGREGOR       CLOUDY    32  27  80 NW5       29.83F WCI  27
$$
MNZ071>073-080-081-089-090-097-098-242000-
   Southwest Minnesota

CITY           SKY/WX    TMP DP  RH WIND       PRES   REMARKS
MONTEVIDEO     CLOUDY    30  27  86 E9        29.83F WCI  22
GRANITE FALLS  CLOUDY    32  29  88 E6        29.83F WCI  26
CANBY          CLOUDY    31  28  88 CALM      29.82S
MARSHALL       CLOUDY    30  27  88 E12       29.80F WCI  20
REDWOOD FALLS  CLOUDY    31  25  78 NE7       29.81F WCI  24
OLIVIA         CLOUDY    32  28  86 E7        29.81F WCI  26
PIPESTONE      CLOUDY    28  28 100 E14       29.74F FOG     WCI  17
WINDOM         CLOUDY    30  28  93 E10       29.78F WCI  21
WORTHINGTON    CLOUDY    29  28  96 E15       29.76F WCI  18
JACKSON        CLOUDY    30  28  93 E12       29.77F WCI  21
TRACY          CLOUDY    31  29  94 E13       29.79F WCI  21
SLAYTON        CLOUDY    28  28  97 E12       29.78F FOG     WCI  18
$$
MNZ065>067-074>077-082>085-091>093-242000-
   South Central Minnesota

CITY           SKY/WX    TMP DP  RH WIND       PRES   REMARKS
MANKATO        CLOUDY    31  27  85 E12       29.81F FOG     WCI  22
NEW ULM        CLOUDY    30  27  86 E6        29.81F WCI  24
ST JAMES       CLOUDY    30  28  93 E7        29.82F WCI  23
FAIRMONT       CLOUDY    31  28  89 E12       29.79F WCI  22
GLENCOE        CLOUDY    32  29  88 NE5       29.82F WCI  27
OWATONNA       CLOUDY    30  28  93 NE6       29.81S FOG     WCI  24
WASECA         CLOUDY    32  30  93 E9        29.82F FOG     WCI  24
ALBERT LEA     CLOUDY    30  28  93 E9        29.79F FOG     WCI  22
$$
MNZ078>079-086>088-094>096-242000-
   Southeast Minnesota

CITY           SKY/WX    TMP DP  RH WIND       PRES   REMARKS
ROCHESTER      CLOUDY    30  28  92 E8        29.80F FOG     WCI  22
RED WING       CLOUDY    36  27  69 SE7       29.83F
STANTON        CLOUDY    33  29  87 NE6       29.81F FOG     WCI  27
DODGE CENTER   CLOUDY    30  28  93 MISG      29.80F
WINONA         CLOUDY    34  28  80 NE3       29.83F
AUSTIN         CLOUDY    30  27  86 E7        29.80S FOG     WCI  23
PRESTON        CLOUDY    30  26  84 E7        29.80F WCI  23
$$
ABBREVIATIONS USED IN REMARKS
   TC - TEMPERATURES IN CELSIUS
  WCI - WIND CHILL INDEX
   HX - HEAT INDEX
  VSB - VISIBILITY
$$




USA.gov is the U.S. government's official web portal to all federal, state and local government web resources and services.